Weather History for Paducah, KY

Change the Weather History Date:

Thursday, August 29, 2013

  Actual Average Record
Temperature  
Mean Temperature 84 °F 76 °F  
Max Temperature 95 °F 88 °F 99 °F (2000)
Min Temperature 72 °F 64 °F 44 °F (1986)
Degree Days  
Heating Degree Days 0 0  
Month to date heating degree days 0 0  
Since 1 June heating degree days 0 4  
Since 1 July heating degree days 0 0  
Cooling Degree Days 19 11  
Month to date cooling degree days 316 365  
Year to date cooling degree days 1134 1288  
Since 1 June cooling degree days 956 1116  
Growing Degree Days 34 (Base 50)    
Moisture  
Dew Point 71 °F    
Average Humidity 67    
Maximum Humidity 90    
Minimum Humidity 44    
Precipitation  
Precipitation 0.00 in 0.09 in 1.29 in (1977)
Month to date precipitation 3.71 2.59  
Year to date precipitation 40.77 32.31  
Snow  
Snow 0.00 in 0.00 in 0.00 in (2002)
Month to date snowfall 0.0 0.0  
Since 1 June snowfall 0.0 0.0  
Since 1 July snowfall 0.0 0.0  
Snow Depth 0.00 in    
Sea Level Pressure  
Sea Level Pressure 29.99 in    
Wind  
Wind Speed 4 mph (West)    
Max Wind Speed 9 mph    
Max Gust Speed 14 mph    
Visibility 10 miles    
Events      
T = Trace of Precipitation, MM = Missing Value Source: NWS Daily Summary

Daily Weather History Graph

Daily Weather History Graph

Search for Another Location

Airport:

Trip Planner

Search our weather history database for the weather conditions in past years. The results will help you decide how hot, cold, wet, or windy it might be!

Date:

Astronomy

Aug. 29, 2013 Rise Set
Actual Time 6:23 AM CDT 7:27 PM CDT
Civil Twilight 5:56 AM CDT 7:54 PM CDT
Nautical Twilight 5:25 AM CDT 8:25 PM CDT
Astronomical Twilight 4:52 AM CDT 8:58 PM CDT
Moon 12:19 AM CDT (8/29) 2:52 PM CDT (8/29)
Length of Visible Light 13h 57m
Length of Day
13h 03m
Last Quarter, 38% of the Moon is Illuminated
Aug 29
Last Quarter
Sep 5
New
Sep 12
First Quarter
Sep 19
Full
Sep 26
Last Quarter

Hourly Weather History & Observations

Time (CDT) Temp. Heat Index Dew Point Humidity Pressure Visibility Wind Dir Wind Speed Gust Speed Precip Events Conditions
12:53 AM 75.0 °F - 70.0 °F 84% 30.00 in 10.0 mi SW 5.8 mph - N/A   Clear
1:53 AM 75.0 °F - 69.1 °F 82% 29.99 in 10.0 mi WSW 6.9 mph - N/A   Clear
2:53 AM 75.0 °F - 68.0 °F 79% 29.99 in 10.0 mi WSW 6.9 mph - N/A   Clear
3:53 AM 75.0 °F - 68.0 °F 79% 29.99 in 10.0 mi WSW 4.6 mph - N/A   Clear
4:53 AM 73.0 °F - 68.0 °F 84% 29.99 in 10.0 mi WSW 4.6 mph - N/A   Clear
5:53 AM 72.0 °F - 68.0 °F 87% 29.99 in 8.0 mi WSW 6.9 mph - N/A   Clear
6:53 AM 73.9 °F - 69.1 °F 85% 30.01 in 8.0 mi WSW 4.6 mph - N/A   Clear
7:53 AM 79.0 °F - 71.1 °F 77% 30.02 in 8.0 mi WSW 4.6 mph - N/A   Partly Cloudy
8:53 AM 82.9 °F 88.0 °F 72.0 °F 69% 30.03 in 10.0 mi WNW 4.6 mph - N/A   Clear
9:53 AM 88.0 °F 94.7 °F 72.0 °F 59% 30.03 in 10.0 mi WNW 4.6 mph - N/A   Clear
10:53 AM 90.0 °F 96.9 °F 72.0 °F 55% 30.03 in 10.0 mi West 3.5 mph - N/A   Clear
11:53 AM 93.0 °F 100.1 °F 71.1 °F 49% 30.01 in 10.0 mi Calm Calm - N/A   Clear
12:53 PM 93.9 °F 100.8 °F 71.1 °F 47% 30.01 in 10.0 mi WNW 4.6 mph - N/A   Clear
1:53 PM 93.9 °F 102.1 °F 72.0 °F 49% 29.99 in 10.0 mi NW 9.2 mph - N/A   Clear
2:53 PM 93.9 °F 100.8 °F 71.1 °F 47% 29.98 in 10.0 mi NW 8.1 mph - N/A   Clear
3:53 PM 91.9 °F 97.4 °F 70.0 °F 48% 29.96 in 10.0 mi WNW 5.8 mph - N/A   Clear
4:53 PM 93.9 °F 100.8 °F 71.1 °F 47% 29.96 in 10.0 mi Variable 4.6 mph - N/A   Clear
5:53 PM 93.9 °F 98.6 °F 68.0 °F 43% 29.95 in 10.0 mi WNW 4.6 mph - N/A   Clear
6:53 PM 86.0 °F 93.8 °F 73.9 °F 67% 29.95 in 10.0 mi Calm Calm - N/A   Clear
7:53 PM 81.0 °F 85.8 °F 73.0 °F 77% 29.96 in 10.0 mi WSW 3.5 mph - N/A   Clear
8:53 PM 79.0 °F - 73.0 °F 82% 29.96 in 10.0 mi Calm Calm - N/A   Clear
9:53 PM 77.0 °F - 73.0 °F 88% 29.96 in 10.0 mi Calm Calm - N/A   Clear
10:53 PM 78.1 °F - 72.0 °F 81% 29.96 in 10.0 mi WSW 3.5 mph - N/A   Clear
11:53 PM 78.1 °F - 73.0 °F 84% 29.95 in 10.0 mi WSW 3.5 mph - N/A   Clear